Location: Unspecified
(0.0000°N, 0.0000°E)
Time: 17:32:57
(UTC+00:00)

STARLINK-36915 - Pass Details

Date: 04 March 2026
Orbit: 265 x 266 km, 53.2° (Epoch: 6 March)

Event Time Altitude Azimuth Distance (km) Brightness Sun altitude
Rises 19:01:22 0° 218° (SW) 1,833 6.0 -12.4°
Reaches altitude 10° 19:03:15 10° 222° (SW) 1,034 4.8 -12.8°
Maximum altitude 19:05:30 62° 303° (WNW) 293 1.4 -13.4°
Enters shadow 19:06:50 21° 21° (NNE) 655 2.8 -13.7°
